HOP107 LFLL-LFPG

Flight info

Callsign HOP107
Flight time N/A
Altitude 22000
Route BUSI8S BUSIL PIBAT PIBA9P
Aircraft AT76/M-SDE2E3FGHIRWXY/LB1

Departure

Time 2026-05-04 17:40
Airport Lyon Saint-Exupéry Airport (LFLL)

Arrival

Time N/A
Airport Charles de Gaulle International Airport (LFPG)
Time Latitude Longitude Altitude Speed Heading
2026-05-04 17:29 45.72051 5.07889 827 ft 0 kts 291°
2026-05-04 17:34 45.72051 5.07883 827 ft 2 kts 271°
2026-05-04 17:35 45.71979 5.07942 827 ft 12 kts 120°
2026-05-04 17:35 45.71902 5.08242 827 ft 16 kts 104°
2026-05-04 17:35 45.71838 5.08367 827 ft 18 kts 167°
2026-05-04 17:36 45.71702 5.08384 827 ft 22 kts 176°
2026-05-04 17:36 45.71541 5.08406 827 ft 24 kts 174°
2026-05-04 17:36 45.71362 5.08433 827 ft 27 kts 173°
2026-05-04 17:36 45.71210 5.08452 827 ft 19 kts 174°
2026-05-04 17:38 45.71157 5.08496 827 ft 6 kts 111°
2026-05-04 17:39 45.71142 5.08612 827 ft 17 kts 98°
2026-05-04 17:39 45.71116 5.08809 827 ft 22 kts 98°
2026-05-04 17:39 45.71094 5.08989 827 ft 14 kts 98°
2026-05-04 17:40 45.71170 5.09019 827 ft 36 kts 355°
2026-05-04 17:40 45.71682 5.08957 828 ft 106 kts 355°
2026-05-04 17:40 45.72519 5.08837 1125 ft 124 kts 354°
2026-05-04 17:40 45.73450 5.08694 1449 ft 152 kts 355°
2026-05-04 17:41 45.74522 5.08545 2086 ft 155 kts 356°
2026-05-04 17:41 45.75673 5.08382 2569 ft 168 kts 357°
2026-05-04 17:41 45.76801 5.08217 3034 ft 166 kts 356°
2026-05-04 17:41 45.77984 5.08048 3377 ft 170 kts 357°
2026-05-04 17:42 45.79185 5.07891 3707 ft 175 kts 358°
2026-05-04 17:42 45.79989 5.07803 3991 ft 175 kts 359°